{"data":{"norad_id":49745,"epoch":"2026-09-18T22:42:07.567488Z","epoch_age_seconds":179532,"freshness":"STALE","line1":"1 49745U 21115X   26261.94592092 -.00001065  00000+0 -22572-4 0  9991","line2":"2 49745  53.1623 347.2108 0000866  71.3517 288.7579 15.31700068264908","mean_motion":15.31700068,"eccentricity":8.66e-5,"inclination_deg":53.1623,"raan_deg":347.2108,"arg_perigee_deg":71.3517,"mean_anomaly_deg":288.7579,"bstar":-2.2572e-5,"rev_number":26490,"period_min":94.013183787363,"perigee_km":470.14667979096,"apogee_km":471.33290525143,"semimajor_km":6848.8767925212,"source":"CELESTRAK","updated_at":"2026-09-20T09:00:39.407249Z"}}